ATLAS 5 CENTAUR DEB, 45474

Orbit data source: Space-Track

ATLAS 5 CENTAUR DEB, 45474 is space debris in HEO originally from a launch on Wed, 17 Oct 2018 UTC launched from the Air Force Eastern Test Range (AFETR). Debris objects in space refer to the collection of defunct objects orbiting the Earth. Examples of debris include non-operational satellites, rocket bodies, and fragments generated from explosions, collisions, or faulty payload assembly.

Loading next visibility...
Identifier
45474, 2018-079BW
Orbit
HEO
Country
Flag of USUS
Related business
Flag of USUnited Launch Alliance/Lockheed Martin (US)
Manufacturer
ULA Decatur
Mission
Spacecraft
Bus & Motor
Unknown
Mass
Unknown
Launch date (UTC)
2018-10-17 (8 years ago)
Launch vehicle
Unknown
Launch site
Air Force Eastern Test Range (AFETR)
Object type
Payload
Rocket body
Debris
Shape & HBR
Unknown shape, 1.1 m
Radar Cross Section
Medium (>0.1 m² and <1 m²)

Expand to show TLE details & history
Last TLE update: 2 months ago

TLE from 2 months ago
0 ATLAS 5 CENTAUR DEB
1 45474U 18079BW  26170.09297731 -.00000115  00000-0  00000-0 0  9991
2 45474  13.0572  62.3698 4455126 254.7970  52.9636  1.74179555 43023
Epoch: 2026-06-19T02:13Z
TLE epoch observation values (Epoch: 2026-06-19T02:13:53.239Z)
Latitude
0.00007°
Longitude
121.54636°
Altitude
20,131.419 km
Speed
4.051 km/s
True Right ascension
04h 09m 22s
True Declination
0° 00' 00"
Sunlit
Object was in daylight at epoch
Visualization orbit readout
Latitude
Unknown
Longitude
Unknown
Altitude
Unknown
Speed
Unknown
Apparent Right ascension
Unknown
Apparent Declination
Unknown
Sunlit
N/A
Visualization observer readout
Local Sidereal Time
17:50:10
Azimuth
Unknown
Elevation
Unknown
Doppler factor
Unknown
Orbital elements
Apogee altitude
35,803.308 km
Perigee altitude
9,802.337 km
Semi-major axis
29,180.959 km
Eccentricity
0.44551
Inclination
13.0572°
RAAN
62.3698°
Arg. of periapsis
254.797°
True anomaly
105.10599°
Mean anomaly
52.9636°
Eccentric anomaly
77.9248°
Mean motion
0.43541 °/min
Orbital period
826.82 mins
BSTAR
0
Loading maneuver chart data...
Computing Atmospheric mass density...

Documentation

Showing up to 5 results
|